Regional Weather Roundup
Issued by NWS

Home | Current Version | Previous Version | Graphics & Text | Print | Product List | Glossary On
Versions: 1 2 3 4 5 6 7 8 9 10 11 12 13 14 15 16 17 18 19 20 21 22 23 24 25 26 27 28 29 30 31 32 33 34 35 36 37 38 39 40 41 42 43 44 45 46 47 48 49 50
000
ASUS45 KBOI 111910
RWRID

IDAHO REGIONAL WEATHER ROUNDUP
NATIONAL WEATHER SERVICE BOISE ID
1200 PM MST MON DEC 11 2017

NOTE: "FAIR" INDICATES FEW OR NO CLOUDS BELOW 12000 FEET
WITH NO SIGNIFICANT WEATHER AND/OR OBSTRUCTIONS TO VISIBILITY

IDZ012-014-112000-
SOUTHWEST IDAHO


CITY           SKY/WX    TMP DP  RH WIND       PRES   REMARKS
BOISE          CLOUDY    24  20  84 CALM      30.69F
CALDWELL       NOT AVBL
MOUNTAIN HOME  CLOUDY    23  23 100 S3        30.69S FOG
$$

IDZ016-017-112000-
SOUTHCENTRAL IDAHO


CITY           SKY/WX    TMP DP  RH WIND       PRES   REMARKS
BURLEY         SUNNY     27  22  81 CALM      30.58F
JEROME         PTSUNNY   26  20  77 E6        30.60F HAZE    WCI  19
TWIN FALLS     FOG       24  22  91 CALM      30.59F VSB 1/4
$$

IDZ019>023-112000-
SOUTHEAST IDAHO


CITY           SKY/WX    TMP DP  RH WIND       PRES   REMARKS
IDAHO FALLS    CLOUDY    25  20  81 NW3       30.60F
POCATELLO      CLOUDY    28  19  69 CALM      30.60F
REXBURG        CLOUDY    27  15  61 CALM      30.59F
$$

IDZ006-010-011-018-031-032-112000-
CENTRAL IDAHO MOUNTAINS


CITY           SKY/WX    TMP DP  RH WIND       PRES   REMARKS
MCCALL         SUNNY     19  17  92 CALM      30.53F
HAILEY         SUNNY     37  14  38 CALM      30.57F
STANLEY          N/A     12   7  80 CALM      30.63F
SALMON         CLOUDY    17  13  84 N3        30.75F
CHALLIS        SUNNY     22  11  62 CALM      30.64F
$$

IDZ002-004-006-007-026-112000-
NORTHERN IDAHO


CITY           SKY/WX    TMP DP  RH WIND       PRES   REMARKS
LEWISTON       CLOUDY    28  26  92 CALM      30.64F
LOWELL           N/A     30  25  81 N6        30.63F WCI  24
COEUR D`ALENE  PTSUNNY   33  24  69 NE13      30.59F WCI  24
MULLAN PASS    MOSUNNY   46  -1  14 S3        30.49F
$$



USA.gov is the U.S. government's official web portal to all federal, state and local government web resources and services.